User: anonymous   Login
Location: Unspecified
(0.0000°N, 0.0000°E)
Time: 14:30:39
(UTC+00:00)
Language:

Genesis I - Orbit

View from above orbital plane
View from above orbital plane
View from above satellite
View from above satellite

Ground track
Ground track

The orbit data is extracted from the following two-line orbital elements,

1 29252U 06029A   18288.89001591  .00000407  00000-0  30189-4 0  9993
2 29252  64.5029 138.2629 0046660 278.6295  80.9543 15.17451261675516
Epoch (UTC): 15 October 2018 21:21:37
Eccentricity: 0.0046660
inclination: 64.5029°
perigee height: 481 km
apogee height: 546 km
right ascension of ascending node: 138.2629°
argument of perigee: 278.6295°
revolutions per day: 15.17451261
mean anomaly at epoch: 80.9543°
orbit number at epoch: 67551

The dashed part of the orbit path shows where the satellite is in the earth's shadow,  

DLR